Location: Newark
(33.9035°S, 18.4112°E)
Time: 09:23:44
(UTC+00:00)

STARLINK-1088 - Pass Details

Date: 21 January 2020
Orbit: 345 x 354 km, 53.0° (Epoch: 18 February)

Event Time Altitude Azimuth Distance (km) Brightness Sun altitude
Exits shadow 02:52:10 23° 290° (WNW) 806 3.9 -12.4°
Maximum altitude 02:53:42 50° 223° (SW) 460 3.1 -12.1°
Drops below altitude 10° 02:56:36 10° 146° (SE) 1,328 6.8 -11.6°
Sets 02:58:40 0° 140° (SE) 2,177 8.3 -11.3°
